Location: G�kdere
(37.0328°N, 30.9000°E)
Time: 22:11:55
(UTC+00:00)

Cosmos 2322 Rocket - Pass Details

Date: 03 March 2021
Orbit: 832 x 852 km, 71.0° (Epoch: 19 April)

Event Time Altitude Azimuth Distance (km) Brightness Sun altitude
Rises 17:22:41 0° 231° (SW) 3,363 6.0 -18.8°
Reaches altitude 10° 17:25:27 10° 243° (WSW) 2,433 5.4 -19.3°
Maximum altitude 17:30:11 28° 301° (WNW) 1,518 4.2 -20.3°
Drops below altitude 10° 17:34:58 10° 360° (N) 2,449 4.7 -21.2°
Sets 17:37:46 0° 12° (NNE) 3,389 5.3 -21.7°
